{"data":{"norad_id":53640,"epoch":"2026-09-20T14:18:50.986944Z","epoch_age_seconds":73343,"freshness":"FRESH","line1":"1 53640U 22104BE  26263.59642346  .00000448  00000+0  24388-4 0  9999","line2":"2 53640  53.1600  61.1929 0000714 117.8447 242.2628 15.34399572225752","mean_motion":15.34399572,"eccentricity":7.14e-5,"inclination_deg":53.16,"raan_deg":61.1929,"arg_perigee_deg":117.8447,"mean_anomaly_deg":242.2628,"bstar":2.4388e-5,"rev_number":22575,"period_min":93.847784258897,"perigee_km":462.21607622962,"apogee_km":463.19294839758,"semimajor_km":6840.8415123136,"source":"CELESTRAK","updated_at":"2026-09-21T09:00:32.947841Z"}}